{"data":{"norad_id":56804,"intl_designator":"2023-078AP","name":"STARLINK-6069","alt_names":[],"object_type":"PAYLOAD","status":"ACTIVE","operator":null,"country":"US","launch_date":"2023-05-31","launch_site_code":"AFWTR","launch_vehicle":null,"mission":null,"orbit_class":"UNKNOWN","rcs_meters":null,"size_class":null,"mass_kg":null,"dimensions":null,"purposes":["comms"],"wikipedia_slug":null,"has_3d_model":false,"image_url":null,"decayed_at":null,"tle_current":{"epoch":"2026-09-20T22:00:03.000096Z","epoch_age_seconds":81534,"freshness":"FRESH","line1":"1 56804U 23078AP  26263.91670139  .00002745  00000+0  20494-3 0  9997","line2":"2 56804  70.0004 192.1005 0004852 250.5968 324.3575 15.04062241  5669","mean_motion":15.04062241,"eccentricity":0.0004852,"inclination_deg":70.0004,"raan_deg":192.1005,"arg_perigee_deg":250.5968,"mean_anomaly_deg":324.3575,"bstar":0.00020494,"rev_number":566,"period_min":95.740718751279,"perigee_km":551.02207125332,"apogee_km":557.74939131176,"semimajor_km":6932.5227312825,"source":"CELESTRAK","updated_at":"2026-09-21T09:00:33.510952Z"}}}